Torna al catalogo

STARLINK-36558

AttivoComunicazioniVLEO
NORAD 67499·PAYLOAD·🇺🇸 United States

Lanciato Jan 18, 2026 da Cape Canaveral Space Force Station

Loading…

Prossimi Passaggi (prossime 24 ore)

TLE

AggiornatoSource: CelesTrak SupGP

Epoca: Sep 14, 2026, 22:39 UTC

1 67499C 26012G   26257.94423611 -.00010367  00000+0 -37554-3 0  2570
2 67499  43.0011 325.6908 0001359 265.9794 139.5745 15.27580455    16

Traccia STARLINK-36558 in tempo reale con AllMySat

Download on the App Store